When you browse on this site, cookies collect data to enhance your experience and personalize the content and advertising you see.
Visit our Privacy Policy to learn more. By continuing to use the site, you agree to this use of cookies and data.
  • In Hungary
  • List of Countries
  • For 7 days
  • Water Temperature
  • Weather Map
  • News
  • Weather Widgets
  • user-avatar
    Login

    Hourly Weather Kownaty

    Today, 23 August, Friday

    Time Temperature Precipitation Wind Pressure Humidity
    00:00 +14°C° 0 mm 1 mps 759 mmHg 79%
    01:00 +13°C° 0 mm 1 mps 759 mmHg 80%
    02:00 +13°C° 0 mm 1 mps 759 mmHg 81%
    03:00 +13°C° 0 mm 1 mps 759 mmHg 83%
    04:00 +12°C° 0 mm 1 mps 759 mmHg 84%
    05:00 +14°C° 0 mm 1 mps 759 mmHg 80%
    06:00 +15°C° 0 mm 1 mps 759 mmHg 76%
    07:00 +18°C° 0 mm 1 mps 759 mmHg 71%
    08:00 +19°C° 0 mm 1 mps 759 mmHg 66%
    09:00 +21°C° 0 mm 1 mps 760 mmHg 61%
    10:00 +23°C° 0 mm 1 mps 760 mmHg 55%
    11:00 +24°C° 0 mm 1 mps 759 mmHg 52%
    12:00 +24°C° 0 mm 1 mps 759 mmHg 49%
    13:00 +25°C° 0 mm 1 mps 759 mmHg 46%
    14:00 +25°C° 0 mm 1 mps 758 mmHg 47%
    15:00 +23°C° 0 mm 0 mps 758 mmHg 47%
    16:00 +23°C° 0 mm 0 mps 758 mmHg 47%
    17:00 +23°C° 0 mm 1 mps 758 mmHg 53%
    18:00 +21°C° 0 mm 1 mps 758 mmHg 59%
    19:00 +19°C° 0 mm 1 mps 758 mmHg 65%
    20:00 +18°C° 0 mm 1 mps 758 mmHg 67%
    21:00 +16°C° 0 mm 1 mps 758 mmHg 69%
    22:00 +16°C° 0 mm 1 mps 758 mmHg 71%
    23:00 +15°C° 0 mm 1 mps 758 mmHg 72%

    Tomorrow, 24 August, Saturday

    Time Temperature Precipitation Wind Pressure Humidity
    00:00 +15°C° 0 mm 1 mps 758 mmHg 73%
    01:00 +15°C° 0 mm 1 mps 758 mmHg 75%
    02:00 +14°C° 0 mm 1 mps 758 mmHg 77%
    03:00 +14°C° 0 mm 1 mps 758 mmHg 78%
    04:00 +14°C° 0 mm 1 mps 758 mmHg 80%
    05:00 +15°C° 0 mm 1 mps 758 mmHg 76%
    06:00 +18°C° 0 mm 1 mps 758 mmHg 73%
    07:00 +19°C° 0 mm 1 mps 758 mmHg 70%
    08:00 +19°C° 0 mm 0 mps 758 mmHg 65%
    09:00 +21°C° 0 mm 0 mps 758 mmHg 59%
    10:00 +23°C° 0 mm 0 mps 758 mmHg 54%
    11:00 +25°C° 0 mm 1 mps 758 mmHg 51%
    12:00 +26°C° 0 mm 1 mps 757 mmHg 48%
    13:00 +26°C° 0 mm 1 mps 757 mmHg 45%
    14:00 +26°C° 0 mm 1 mps 757 mmHg 46%
    15:00 +26°C° 0 mm 1 mps 757 mmHg 47%
    16:00 +26°C° 0 mm 1 mps 756 mmHg 48%
    17:00 +24°C° 0 mm 1 mps 756 mmHg 54%
    18:00 +22°C° 0 mm 1 mps 756 mmHg 60%
    19:00 +20°C° 0 mm 1 mps 756 mmHg 65%
    20:00 +19°C° 0 mm 1 mps 756 mmHg 67%
    21:00 +18°C° 0 mm 1 mps 757 mmHg 70%
    22:00 +17°C° 0 mm 2 mps 757 mmHg 72%
    23:00 +16°C° 0 mm 2 mps 757 mmHg 74%

    Day after tomorrow, 25 August, Sunday

    Time Temperature Precipitation Wind Pressure Humidity
    00:00 +16°C° 0 mm 2 mps 757 mmHg 76%
    01:00 +15°C° 0 mm 1 mps 757 mmHg 78%
    02:00 +15°C° 0 mm 1 mps 757 mmHg 79%
    03:00 +15°C° 0 mm 1 mps 757 mmHg 80%
    04:00 +14°C° 0 mm 1 mps 757 mmHg 82%
    05:00 +16°C° 0 mm 2 mps 757 mmHg 79%
    06:00 +17°C° 0 mm 2 mps 757 mmHg 76%
    07:00 +18°C° 0 mm 2 mps 757 mmHg 73%
    08:00 +20°C° 0 mm 2 mps 757 mmHg 67%
    09:00 +22°C° 0 mm 3 mps 757 mmHg 60%
    10:00 +24°C° 0 mm 3 mps 757 mmHg 54%
    11:00 +25°C° 0 mm 3 mps 757 mmHg 52%
    12:00 +26°C° 0 mm 3 mps 756 mmHg 49%
    13:00 +26°C° 0 mm 3 mps 756 mmHg 47%
    14:00 +26°C° 0 mm 3 mps 756 mmHg 48%
    15:00 +26°C° 0 mm 3 mps 756 mmHg 50%
    16:00 +26°C° 0 mm 3 mps 755 mmHg 51%
    17:00 +24°C° 0 mm 3 mps 756 mmHg 58%
    18:00 +21°C° 0 mm 2 mps 756 mmHg 64%
    19:00 +19°C° 0 mm 2 mps 756 mmHg 71%
    20:00 +18°C° 0 mm 2 mps 756 mmHg 74%
    21:00 +17°C° 0 mm 2 mps 756 mmHg 76%
    22:00 +17°C° 0 mm 2 mps 756 mmHg 79%
    23:00 +16°C° 0 mm 2 mps 756 mmHg 81%

    26 August, Monday

    Time Temperature Precipitation Wind Pressure Humidity
    00:00 +16°C° 0 mm 2 mps 756 mmHg 83%
    01:00 +15°C° 0 mm 2 mps 756 mmHg 85%
    02:00 +15°C° 0 mm 2 mps 756 mmHg 86%
    03:00 +15°C° 0 mm 2 mps 756 mmHg 88%
    04:00 +15°C° 0 mm 2 mps 756 mmHg 89%
    05:00 +16°C° 0 mm 3 mps 756 mmHg 86%
    06:00 +17°C° 0 mm 3 mps 756 mmHg 82%
    07:00 +19°C° 0 mm 3 mps 756 mmHg 79%
    08:00 +21°C° 0 mm 4 mps 756 mmHg 71%
    09:00 +22°C° 0 mm 4 mps 756 mmHg 63%
    10:00 +25°C° 0 mm 4 mps 756 mmHg 54%
    11:00 +26°C° 0 mm 5 mps 756 mmHg 53%
    12:00 +27°C° 0 mm 5 mps 756 mmHg 52%
    13:00 +27°C° 0 mm 5 mps 755 mmHg 51%
    14:00 +27°C° 0 mm 4 mps 755 mmHg 52%
    15:00 +27°C° 0 mm 4 mps 755 mmHg 54%
    16:00 +27°C° 0 mm 4 mps 755 mmHg 56%
    17:00 +25°C° 0 mm 3 mps 755 mmHg 62%
    18:00 +22°C° 0 mm 3 mps 755 mmHg 69%
    19:00 +21°C° 0 mm 3 mps 755 mmHg 75%
    20:00 +20°C° 0 mm 3 mps 755 mmHg 79%
    21:00 +19°C° 0 mm 3 mps 755 mmHg 82%
    22:00 +19°C° 0 mm 4 mps 755 mmHg 85%
    23:00 +18°C° 0 mm 4 mps 755 mmHg 87%

    27 August, Tuesday

    Time Temperature Precipitation Wind Pressure Humidity
    00:00 +18°C° 0 mm 3 mps 755 mmHg 89%
    01:00 +17°C° 0 mm 3 mps 755 mmHg 91%
    02:00 +17°C° 0 mm 3 mps 755 mmHg 91%
    03:00 +16°C° 0 mm 3 mps 755 mmHg 91%
    04:00 +16°C° 0 mm 3 mps 755 mmHg 92%
    05:00 +17°C° 0 mm 3 mps 755 mmHg 87%
    06:00 +19°C° 0 mm 4 mps 755 mmHg 82%
    07:00 +20°C° 0 mm 4 mps 755 mmHg 77%
    08:00 +22°C° 0 mm 4 mps 755 mmHg 71%
    09:00 +25°C° 0 mm 4 mps 755 mmHg 65%
    10:00 +26°C° 0 mm 5 mps 755 mmHg 59%
    11:00 +27°C° 0 mm 5 mps 755 mmHg 56%
    12:00 +28°C° 0 mm 4 mps 755 mmHg 53%
    13:00 +29°C° 0 mm 4 mps 754 mmHg 51%
    14:00 +29°C° 0 mm 4 mps 754 mmHg 52%
    15:00 +28°C° 0 mm 4 mps 754 mmHg 54%
    16:00 +28°C° 0 mm 4 mps 754 mmHg 55%
    17:00 +26°C° 0 mm 4 mps 754 mmHg 61%
    18:00 +23°C° 0 mm 4 mps 754 mmHg 68%
    19:00 +22°C° 0 mm 4 mps 754 mmHg 74%
    20:00 +21°C° 0 mm 4 mps 754 mmHg 76%
    21:00 +20°C° 0 mm 4 mps 754 mmHg 77%
    22:00 +19°C° 0 mm 4 mps 754 mmHg 79%
    23:00 +19°C° 0 mm 4 mps 754 mmHg 80%

    28 August, Wednesday

    Time Temperature Precipitation Wind Pressure Humidity
    00:00 +19°C° 0 mm 4 mps 754 mmHg 82%
    01:00 +18°C° 0 mm 4 mps 753 mmHg 83%
    02:00 +18°C° 0 mm 4 mps 753 mmHg 84%
    03:00 +18°C° 0 mm 4 mps 753 mmHg 85%
    04:00 +17°C° 0 mm 4 mps 753 mmHg 85%
    05:00 +18°C° 0 mm 4 mps 753 mmHg 81%
    06:00 +19°C° 0 mm 5 mps 753 mmHg 76%
    07:00 +20°C° 0 mm 5 mps 753 mmHg 72%
    08:00 +22°C° 0 mm 5 mps 753 mmHg 66%
    09:00 +25°C° 0 mm 5 mps 753 mmHg 60%
    10:00 +26°C° 0 mm 6 mps 752 mmHg 55%
    11:00 +28°C° 0 mm 6 mps 752 mmHg 52%
    12:00 +29°C° 0 mm 6 mps 752 mmHg 50%
    13:00 +30°C° 0 mm 6 mps 752 mmHg 47%
    14:00 +30°C° 0 mm 5 mps 751 mmHg 49%
    15:00 +30°C° 0 mm 4 mps 751 mmHg 51%
    16:00 +30°C° 0 mm 4 mps 750 mmHg 53%
    17:00 +28°C° 0 mm 4 mps 750 mmHg 57%
    18:00 +26°C° 0 mm 4 mps 750 mmHg 61%
    19:00 +23°C° 0 mm 4 mps 750 mmHg 66%
    20:00 +23°C° 0.1 mm 4 mps 750 mmHg 67%
    21:00 +22°C° 0.1 mm 4 mps 750 mmHg 69%
    22:00 +21°C° 0.1 mm 4 mps 750 mmHg 70%
    23:00 +21°C° 0.3 mm 4 mps 750 mmHg 75%
    Show more